Location: Apalco
(33.3585°N, 93.4602°W)
Time: 11:50:15
(UTC+00:00)

Tiangong - Pass Details

Date: 24 September 2021
Orbit: 382 x 385 km, 41.5° (Epoch: 18 October)

Event Time Altitude Azimuth Distance (km) Brightness Sun altitude
Rises 19:34:27 0° 267° (W) 2,245 5.3 50.4°
Enters shadow 20:07:33 -53° 127° (SE) 10,685 7.9 45.8°
Exits shadow 20:42:37 -57° 329° (NNW) 11,150 8.1 40.1°
Maximum altitude 10:33:12 21° 143° (SE) 923 3.2 -19.5°
